Weather in Spas-Zaulok

Russia / Moscow Oblast     56°28′29″N   36°34′41″E
temp.,
°C
wind,
m/s
gust,
m/s
humid.,
%
clouds,
%
prec.,
mm/h
press.,
hPa
HPBL,
m
1 august, sun
sun100:00+15sw2782100 0.0 1008141
03:00+14sw2687100 0.0 1009117
06:00+15ssw2583100 0.0 1009121
09:00+21sw3656100 0.0 1010449
12:00+17ssw3794100 1.3 1011409
15:00+20s4883100 2.0 1010585
18:00+23sw3770100 0.0 10081177
21:00+18ssw379234 0.1 1009154
2 august, mon
mon200:00+17ssw2697100 0.1 1009116
03:00+16ssw2697100 0.1 1009116
06:00+17ssw249596 0.0 100997
09:00+23sse24679 0.0 1007552
12:00+28sse4651100 0.0 10051391
15:00+29ssw61047100 0.0 10032241
18:00+28ssw4105744 0.0 10011450
21:00+21sw61473100 0.2 1002723
3 august, tue
tue300:00+18sw51394100 1.4 1001530
03:00+17sw4996100 1.8 1002740
06:00+15w3795100 0.2 1004580
09:00+16wsw2688100 0.3 1006491
12:00+19w3569100 0.1 10071054
15:00+21wsw456519 1.4 10071256
18:00+18wsw3888100 1.6 1008469
21:00+15sw369129 2.1 1009103
4 august, wed
wed400:00+13wsw36940 0.0 1010118
03:00+12wsw23982 0.0 101273
06:00+12wnw25963 0.0 1014141
09:00+17nw23660 0.0 1015601
12:00+22nw234297 0.0 10152051
15:00+20nnw1348100 0.0 1016972
18:00+21s244779 0.0 1016711
21:00+16wsw236543 0.0 101669
5 august, thu
thu500:00+12nnw017899 0.0 101810
03:00+11ne1176100 0.0 101810
06:00+12e117292 0.0 101816
09:00+19ese125294 0.0 1018433
12:00+24sse223741 0.0 10172071
15:00+25s233493 0.0 10162675
18:00+21se235580 0.0 1016103
21:00+18sse116094 0.0 101611